Weather History for KGTR - August, 2014

Change the Weather History Date:

Thursday, August 28, 2014

  Actual Average Record
Temperature  
Mean Temperature 80 °F -  
Max Temperature 93 °F 88 °F 98 °F (1998)
Min Temperature 66 °F 67 °F 62 °F (1998)
Cooling Degree Days 14    
Growing Degree Days 30 (Base 50)    
Moisture  
Dew Point 62 °F    
Average Humidity 65    
Maximum Humidity 88    
Minimum Humidity 31    
Precipitation  
Precipitation 0.00 in - - ()
Sea Level Pressure  
Sea Level Pressure 30.00 in    
Wind  
Wind Speed 2 mph (ESE)    
Max Wind Speed 12 mph    
Max Gust Speed -    
Visibility 9 miles    
Events      
Averages and records for this station are not official NWS values.
T = Trace of Precipitation, MM = Missing Value Source: NWS Daily Summary

Daily Weather History Graph

Daily Weather History Graph

Search for Another Location

Airport or City:

Trip Planner

Search our weather history database for the weather conditions in past years. The results will help you decide how hot, cold, wet, or windy it might be!

Date:

Astronomy

Aug. 28, 2014 Rise Set
Actual Time 6:25 AM CDT 7:24 PM CDT
Civil Twilight 6:00 AM CDT 7:50 PM CDT
Nautical Twilight 5:29 AM CDT 8:20 PM CDT
Astronomical Twilight 4:58 AM CDT 8:51 PM CDT
Moon 9:07 AM CDT (8/28) 9:00 PM CDT (8/28)
Length of Visible Light 13h 50m
Length of Day
12h 59m
Waxing Crescent, 9% of the Moon is Illuminated
Aug 28
Waxing Crescent
Sep 2
First Quarter
Sep 8
Full
Sep 15
Last Quarter
Sep 24
New

Hourly Weather History & Observations

Time (CDT) Temp. Heat Index Dew Point Humidity Pressure Visibility Wind Dir Wind Speed Gust Speed Precip Events Conditions
12:15 AM 71.6 °F - 62.6 °F 73% 30.03 in 10.0 mi Calm Calm - N/A   Clear
12:35 AM 69.8 °F - 62.6 °F 78% 30.03 in 10.0 mi Calm Calm - N/A   Clear
12:55 AM 71.6 °F - 62.6 °F 73% 30.03 in 10.0 mi Calm Calm - N/A   Clear
1:15 AM 71.6 °F - 62.6 °F 73% 30.02 in 10.0 mi NE 4.6 mph - N/A   Clear
1:35 AM 69.8 °F - 60.8 °F 73% 30.02 in 10.0 mi Calm Calm - N/A   Clear
1:55 AM 69.8 °F - 62.6 °F 78% 30.02 in 10.0 mi Calm Calm - N/A   Clear
2:15 AM 69.8 °F - 62.6 °F 78% 30.02 in 10.0 mi Calm Calm - N/A   Clear
2:35 AM 69.8 °F - 62.6 °F 78% 30.01 in 10.0 mi NNE 3.5 mph - N/A   Clear
2:55 AM 68.0 °F - 62.6 °F 83% 30.01 in 10.0 mi Calm Calm - N/A   Clear
3:15 AM 68.0 °F - 62.6 °F 83% 30.01 in 10.0 mi Calm Calm - N/A   Clear
3:35 AM 66.2 °F - 60.8 °F 83% 30.01 in 10.0 mi Calm Calm - N/A   Clear
3:55 AM 69.8 °F - 62.6 °F 78% 30.01 in 10.0 mi North 3.5 mph - N/A   Clear
4:15 AM 66.2 °F - 60.8 °F 83% 30.01 in 8.0 mi Calm Calm - N/A   Clear
4:35 AM 66.2 °F - 60.8 °F 83% 30.02 in 10.0 mi Calm Calm - N/A   Clear
4:55 AM 66.2 °F - 62.6 °F 88% 30.02 in 8.0 mi Calm Calm - N/A   Clear
5:15 AM 66.2 °F - 62.6 °F 88% 30.03 in 8.0 mi NE 3.5 mph - N/A   Clear
5:35 AM 66.2 °F - 60.8 °F 83% 30.03 in 3.0 mi NNE 3.5 mph - N/A   Clear
5:45 AM 66.2 °F - 62.6 °F 88% 30.03 in 10.0 mi Calm Calm - N/A   Clear
5:55 AM 66.2 °F - 60.8 °F 83% 30.03 in 6.0 mi North 3.5 mph - N/A   Clear
6:45 AM 68.0 °F - 60.8 °F 78% 30.03 in 10.0 mi Calm Calm - N/A   Scattered Clouds
7:45 AM 71.6 °F - 64.4 °F 78% 30.04 in 10.0 mi Calm Calm - N/A   Partly Cloudy
8:45 AM 78.8 °F - 66.2 °F 65% 30.04 in 10.0 mi Calm Calm - N/A   Partly Cloudy
9:45 AM 84.2 °F 85.0 °F 62.6 °F 48% 30.04 in 10.0 mi East 4.6 mph - N/A   Partly Cloudy
10:45 AM 87.8 °F 88.5 °F 62.6 °F 43% 30.04 in 10.0 mi East 4.6 mph - N/A   Partly Cloudy
11:45 AM 91.4 °F 91.4 °F 60.8 °F 36% 30.03 in 10.0 mi SSE 4.6 mph - N/A   Partly Cloudy
12:45 PM 91.4 °F 91.4 °F 60.8 °F 36% 30.02 in 10.0 mi East 6.9 mph - N/A   Scattered Clouds
1:50 PM 91.4 °F 90.7 °F 59.0 °F 34% 30.00 in 10.0 mi SSW 6.9 mph - N/A   Scattered Clouds
2:50 PM 93.2 °F 92.6 °F 59.0 °F 32% 29.98 in 10.0 mi ESE 6.9 mph - N/A   Scattered Clouds
3:50 PM 93.2 °F 93.3 °F 60.8 °F 34% 29.96 in 10.0 mi SSE 9.2 mph - N/A   Scattered Clouds
4:50 PM 91.4 °F 89.9 °F 57.2 °F 31% 29.95 in 10.0 mi SE 11.5 mph - N/A   Scattered Clouds
5:50 PM 91.4 °F 90.7 °F 59.0 °F 34% 29.94 in 10.0 mi East 9.2 mph - N/A   Scattered Clouds
7:50 PM 86.0 °F 86.6 °F 62.6 °F 45% 29.95 in 10.0 mi Calm Calm - N/A   Partly Cloudy
8:15 PM 84.2 °F 85.0 °F 62.6 °F 48% 29.96 in 10.0 mi Calm Calm - N/A   Clear
8:35 PM 82.4 °F 82.9 °F 60.8 °F 48% 29.96 in 9.0 mi Calm Calm - N/A   Clear
8:55 PM 80.6 °F 81.8 °F 62.6 °F 54% 29.97 in 7.0 mi Calm Calm - N/A   Clear
9:15 PM 78.8 °F - 62.6 °F 57% 29.97 in 10.0 mi Calm Calm - N/A   Clear
9:35 PM 78.8 °F - 62.6 °F 57% 29.97 in 10.0 mi Calm Calm - N/A   Clear
9:55 PM 77.0 °F - 62.6 °F 61% 29.98 in 6.0 mi SSE 4.6 mph - N/A   Clear
10:15 PM 73.4 °F - 62.6 °F 69% 29.98 in 10.0 mi SSE 4.6 mph - N/A   Clear
10:35 PM 78.8 °F - 62.6 °F 57% 29.98 in 10.0 mi South 4.6 mph - N/A   Clear
10:55 PM 75.2 °F - 62.6 °F 65% 29.99 in 10.0 mi South 5.8 mph - N/A   Clear
11:15 PM 73.4 °F - 62.6 °F 69% 29.98 in 10.0 mi SSW 3.5 mph - N/A   Clear
11:35 PM 75.2 °F - 62.6 °F 65% 29.99 in 10.0 mi SSW 3.5 mph - N/A   Clear
11:55 PM 73.4 °F - 62.6 °F 69% 29.99 in 10.0 mi Calm Calm - N/A   Clear